[[{"header":{"parameterUnit":"m.s-1","parameterCategory":1,"la1":30.2991,"la2":30.254,"lo1":-89.0895,"lo2":-89.0444,"dy":0.0017,"dx":0.0017,"nx":28,"ny":28,"refTime":"2024-05-04T03:00:00:Z","depth":0,"parameterNumber":2,"parameterNumberName":"U-component_of_WINDS"},"data":[0,0,0,0,0,0,0,0,0,0,0,0,0,0,0,0,0,0,0,0,0,0,0,0,0,0,0,0,0,0,0,0,0,0,0,0,0,0,0,0,0,0,0,0,0,0,0,0,0,0,0,0,0,0,0,0,0,0,-0.5539,-0.5539,0,-0.5495,-0.5494,-0.5494,-0.5448,-0.5447,-0.5446,-0.5446,-0.5402,-0.5401,-0.54,0,0,0,0,0,0,0,0,0,0,0,0,0,-0.5587,-0.5586,-0.5539,-0.5539,-0.5538,-0.5495,-0.5494,-0.5494,-0.5448,-0.5447,-0.5446,-0.5446,-0.5402,-0.5401,-0.54,0,0,0,0,0,0,0,0,0,0,0,0,0,-0.5557,-0.5586,-0.554,-0.551,-0.5507,-0.5495,-0.5494,-0.5493,-0.5448,-0.5447,-0.5446,-0.5445,-0.5402,-0.5401,-0.54,-0.5414,0,0,-0.5398,-0.5397,0,0,0,0,0,0,0,0,-0.5559,-0.5555,-0.5515,-0.5512,-0.5509,-0.5476,-0.5495,-0.5467,-0.5448,-0.5471,-0.5446,-0.5445,-0.5427,-0.5424,-0.5418,-0.5412,-0.541,-0.5398,-0.5397,-0.5397,-0.5396,0,0,0,0,0,0,0,-0.5561,-0.5557,-0.5522,-0.5515,-0.5511,-0.55,-0.5495,-0.5489,-0.5455,-0.5468,-0.5465,-0.546,-0.5425,-0.5419,-0.5417,-0.5409,-0.5398,-0.5397,-0.5396,-0.5396,-0.5413,-0.5414,0,0,0,0,0,0,-0.5567,-0.5559,-0.5523,-0.552,-0.5532,-0.55,-0.5494,-0.5487,-0.5455,-0.5449,-0.5461,-0.5458,-0.5421,-0.5418,-0.5415,-0.5429,-0.5397,-0.5396,-0.5395,-0.5412,-0.5414,-0.5415,0,0,0,0,0,0,-0.5568,-0.5564,-0.5525,-0.5539,-0.5533,-0.55,-0.5493,-0.5487,-0.5481,-0.5449,-0.5443,-0.5461,-0.542,-0.5416,-0.5415,-0.5427,-0.5395,-0.5395,-0.5411,-0.5413,-0.5414,-0.5458,0,0,0,0,0,0,-0.557,-0.5565,-0.5569,-0.5539,-0.5532,-0.5525,-0.5494,-0.5487,-0.5479,-0.5475,-0.5447,-0.5442,-0.5419,-0.5416,-0.5414,-0.5425,-0.5394,-0.541,-0.5412,-0.5414,-0.5456,-0.5461,-0.5466,0,0,0,0,0,-0.5572,-0.5584,-0.557,-0.5566,-0.5537,-0.5526,-0.5522,-0.5495,-0.548,-0.5485,-0.5465,-0.5443,-0.5426,-0.5416,-0.5413,-0.5425,-0.5409,-0.5411,-0.5413,-0.5453,-0.546,-0.5466,0,0,0,0,0,0,-0.5617,-0.5579,-0.5563,-0.5566,-0.5549,-0.5518,-0.5523,-0.5503,-0.5491,-0.5488,-0.5455,-0.5449,-0.5452,-0.5438,-0.5428,-0.5437,-0.5414,-0.5416,-0.5446,-0.5452,-0.5457,-0.5461,-0.5393,0,0,0,0,0,-0.5627,-0.562,-0.5588,-0.5594,-0.5586,-0.5556,-0.555,-0.5531,-0.5513,-0.5506,-0.5486,-0.5469,-0.546,-0.5455,-0.5445,-0.5453,-0.5447,-0.546,-0.5465,-0.5469,-0.5471,-0.5475,-0.5481,-0.5422,-0.5422,-0.5422,0,0,-0.5648,-0.5627,-0.5625,-0.5602,-0.5587,-0.5582,-0.5551,-0.5546,-0.5542,-0.5505,-0.5503,-0.5488,-0.5467,-0.5471,-0.5471,-0.5459,-0.5486,-0.5472,-0.5476,-0.5475,-0.5478,-0.5484,-0.5489,-0.5423,-0.5423,-0.5423,0,0,-0.5684,-0.5667,-0.567,-0.5655,-0.5633,-0.5613,-0.5614,-0.5585,-0.5574,-0.5571,-0.5543,-0.5538,-0.5523,-0.551,-0.5502,-0.5534,-0.5513,-0.5531,-0.5558,-0.5563,-0.5567,-0.5571,-0.5583,-0.5588,-0.5533,-0.5533,-0.5533,0,-0.5713,-0.5703,-0.5674,-0.5671,-0.5663,-0.5628,-0.5632,-0.5619,-0.5595,-0.559,-0.5577,-0.5558,-0.5542,-0.5543,-0.5551,-0.5544,-0.5545,-0.5534,-0.5569,-0.5573,-0.5576,-0.5587,-0.5592,-0.5536,-0.5536,-0.5535,-0.5535,0,-0.5741,-0.5735,-0.574,-0.5717,-0.5709,-0.571,-0.5681,-0.5676,-0.5658,-0.564,-0.5637,-0.5617,-0.5603,-0.5601,-0.5583,-0.5599,-0.5593,-0.5575,-0.5552,-0.5584,-0.5594,-0.5598,-0.5539,-0.5538,-0.5538,-0.5537,0,0,-0.5804,-0.5765,-0.5767,-0.5757,-0.573,-0.5725,-0.5724,-0.571,-0.5707,-0.5692,-0.5691,-0.568,-0.5663,-0.5653,-0.5634,-0.5637,-0.5665,-0.5619,-0.5618,-0.5629,-0.5683,-0.5697,-0.5702,-0.5651,-0.5652,-0.5652,-0.5685,0,-0.5836,-0.5832,-0.5805,-0.581,-0.5804,-0.5772,-0.5771,-0.5755,-0.5738,-0.5732,-0.5713,-0.5706,-0.5684,-0.5678,-0.568,-0.5661,-0.5675,-0.5658,-0.5651,-0.5651,-0.5658,-0.5707,-0.5722,-0.5754,-0.5688,-0.5689,-0.5689,0,-0.5873,-0.5859,-0.5863,-0.5836,-0.5833,-0.5833,-0.5818,-0.5812,-0.5793,-0.5781,-0.577,-0.5748,-0.5746,-0.5725,-0.5722,-0.5711,-0.5707,-0.5697,-0.5698,-0.5696,-0.5673,-0.5708,-0.5763,-0.5768,-0.5695,-0.5695,-0.5694,0,-0.592,-0.5902,-0.5902,-0.5894,-0.5863,-0.5864,-0.5851,-0.5831,-0.5825,-0.5812,-0.5807,-0.5795,-0.5788,-0.5779,-0.5755,-0.5741,-0.5756,-0.5731,-0.5746,-0.5747,-0.5751,-0.5751,-0.5807,-0.5747,-0.5747,-0.5747,-0.5747,0,-0.5958,-0.5962,-0.5923,-0.5923,-0.5927,-0.5896,-0.5901,-0.5885,-0.5868,-0.5865,-0.5836,-0.5834,-0.5801,-0.5796,-0.5777,-0.5778,-0.5775,-0.5766,-0.5761,-0.5769,-0.577,-0.5766,-0.5764,-0.5748,-0.5748,-0.5748,-0.5747,0,-0.6012,-0.5986,-0.5984,-0.5954,-0.5947,-0.5951,-0.5926,-0.5925,-0.5906,-0.5903,-0.5901,-0.5872,-0.5864,-0.5838,-0.5824,-0.5811,-0.5819,-0.5809,-0.5826,-0.5823,-0.5839,-0.5838,-0.5894,-0.5901,-0.5836,-0.5837,-0.5837,0,-0.6039,-0.6041,-0.6011,-0.6007,-0.5995,-0.5989,-0.5982,-0.5952,-0.5946,-0.5926,-0.5928,-0.5918,-0.5908,-0.5897,-0.5875,-0.5865,-0.5854,-0.5875,-0.5853,-0.5861,-0.5856,-0.5856,-0.5857,-0.588,-0.5881,-0.5881,-0.5882,0,-0.609,-0.6077,-0.6067,-0.6054,-0.6046,-0.6034,-0.602,-0.6019,-0.5986,-0.5981,-0.5972,-0.5965,-0.595,-0.5941,-0.5927,-0.5914,-0.5893,-0.5889,-0.5892,-0.5901,-0.5911,-0.5906,-0.584,-0.5888,-0.5887,-0.5887,-0.5887,-0.5886,-0.6131,-0.6132,-0.6111,-0.6102,-0.6088,-0.6076,-0.6075,-0.6056,-0.6048,-0.6033,-0.6017,-0.601,-0.5992,-0.5971,-0.596,-0.5955,-0.5944,-0.5948,-0.5949,-0.5951,-0.5955,-0.5911,-0.5953,-0.5952,-0.5952,-0.5952,-0.5952,0,-0.6182,-0.6167,-0.6158,-0.614,-0.6133,-0.6113,-0.6097,-0.6093,-0.6087,-0.6072,-0.6063,-0.6054,-0.6044,-0.6022,-0.6011,-0.6012,-0.6002,-0.601,-0.601,-0.6008,-0.5966,-0.5965,-0.6018,-0.6018,-0.6018,-0.6018,-0.6018,-0.6018,-0.6207,-0.6207,-0.6192,-0.6185,-0.617,-0.6164,-0.6156,-0.6146,-0.6133,-0.6124,-0.6116,-0.6101,-0.6083,-0.607,-0.6062,-0.6055,-0.6053,-0.6064,-0.6055,-0.6017,-0.601,-0.6004,-0.6003,-0.6064,-0.6064,-0.6098,-0.6098,-0.6098]},{"header":{"parameterUnit":"m.s-1","parameterCategory":1,"la1":30.2991,"la2":30.254,"lo1":-89.0895,"lo2":-89.0444,"dy":0.0017,"dx":0.0017,"nx":28,"ny":28,"refTime":"2024-05-04T03:00:00:Z","depth":0,"parameterNumber":3,"parameterNumberName":"V-component_of_WINDS"},"data":[0,0,0,0,0,0,0,0,0,0,0,0,0,0,0,0,0,0,0,0,0,0,0,0,0,0,0,0,0,0,0,0,0,0,0,0,0,0,0,0,0,0,0,0,0,0,0,0,0,0,0,0,0,0,0,0,0,0,2.5888,2.5888,0,2.5911,2.5911,2.5911,2.5933,2.5933,2.5933,2.5934,2.5955,2.5955,2.5955,0,0,0,0,0,0,0,0,0,0,0,0,0,2.5861,2.5862,2.5888,2.5888,2.5888,2.591,2.5911,2.5911,2.5933,2.5933,2.5934,2.5934,2.5955,2.5955,2.5955,0,0,0,0,0,0,0,0,0,0,0,0,0,2.5877,2.5862,2.5888,2.5902,2.5903,2.591,2.5911,2.5911,2.5933,2.5933,2.5934,2.5934,2.5955,2.5955,2.5956,2.595,0,0,2.5957,2.5957,0,0,0,0,0,0,0,0,2.5876,2.5878,2.5899,2.5901,2.5903,2.5919,2.5909,2.5924,2.5933,2.5922,2.5934,2.5934,2.5943,2.5944,2.5947,2.5951,2.5952,2.5957,2.5957,2.5957,2.5958,0,0,0,0,0,0,0,2.5875,2.5877,2.5897,2.59,2.5902,2.5907,2.5909,2.5912,2.5929,2.5923,2.5924,2.5927,2.5943,2.5947,2.5948,2.5952,2.5957,2.5957,2.5958,2.5958,2.5952,2.5952,0,0,0,0,0,0,2.5872,2.5876,2.5896,2.5897,2.589,2.5907,2.591,2.5913,2.5929,2.5932,2.5926,2.5928,2.5946,2.5947,2.5949,2.5943,2.5957,2.5958,2.5958,2.5953,2.5952,2.5952,0,0,0,0,0,0,2.5872,2.5874,2.5895,2.5887,2.589,2.5907,2.5911,2.5914,2.5917,2.5932,2.5935,2.5927,2.5946,2.5948,2.595,2.5944,2.5958,2.5958,2.5953,2.5953,2.5952,2.5932,0,0,0,0,0,0,2.5871,2.5873,2.5872,2.5887,2.5891,2.5896,2.591,2.5914,2.5918,2.592,2.5933,2.5936,2.5947,2.5949,2.595,2.5945,2.5959,2.5954,2.5953,2.5952,2.5933,2.5931,2.5929,0,0,0,0,0,2.587,2.5864,2.5871,2.5874,2.5889,2.5895,2.5897,2.5911,2.5918,2.5916,2.5926,2.5936,2.5945,2.5949,2.595,2.5946,2.5954,2.5953,2.5952,2.5934,2.5932,2.5929,0,0,0,0,0,0,2.5847,2.5867,2.5875,2.5874,2.5883,2.5899,2.5897,2.5907,2.5913,2.5915,2.593,2.5933,2.5933,2.5939,2.5943,2.5941,2.5951,2.595,2.5937,2.5934,2.5932,2.593,2.5959,0,0,0,0,0,2.5842,2.5846,2.5863,2.5861,2.5865,2.5881,2.5884,2.5893,2.5903,2.5906,2.5916,2.5924,2.5929,2.5932,2.5937,2.5935,2.5938,2.5932,2.593,2.5928,2.5927,2.5927,2.5925,2.5949,2.5949,2.5949,0,0,2.5831,2.5843,2.5844,2.5857,2.5865,2.5869,2.5883,2.5886,2.5889,2.5907,2.5909,2.5917,2.5927,2.5926,2.5926,2.5932,2.5921,2.5927,2.5925,2.5926,2.5926,2.5923,2.5921,2.5948,2.5948,2.5948,0,0,2.5815,2.5824,2.5824,2.5832,2.5844,2.5854,2.5854,2.5869,2.5875,2.5878,2.5891,2.5894,2.5902,2.5909,2.5914,2.59,2.591,2.5901,2.589,2.5889,2.5887,2.5886,2.5881,2.5879,2.5901,2.5901,2.5901,0,2.58,2.5807,2.5822,2.5825,2.583,2.5847,2.5847,2.5853,2.5866,2.5869,2.5875,2.5886,2.5894,2.5896,2.5893,2.5896,2.5896,2.59,2.5886,2.5885,2.5884,2.588,2.5878,2.59,2.59,2.59,2.59,0,2.5788,2.5793,2.5791,2.5804,2.5809,2.581,2.5826,2.5829,2.5838,2.5847,2.585,2.5861,2.5869,2.587,2.5878,2.5873,2.5876,2.5884,2.5894,2.588,2.5876,2.5875,2.5898,2.5898,2.5899,2.5899,0,0,2.5757,2.5779,2.5779,2.5785,2.58,2.5804,2.5806,2.5815,2.5817,2.5826,2.5828,2.5834,2.5842,2.5848,2.5857,2.5857,2.5846,2.5865,2.5865,2.5861,2.5841,2.5835,2.5832,2.5852,2.5852,2.5852,2.584,0,2.5742,2.5748,2.5762,2.5763,2.5768,2.5784,2.5786,2.5795,2.5804,2.5809,2.5819,2.5824,2.5834,2.5837,2.5837,2.5847,2.5842,2.5848,2.5854,2.5854,2.5851,2.5831,2.5824,2.5812,2.5839,2.5838,2.5838,0,2.5726,2.5735,2.5737,2.5753,2.5755,2.5757,2.5766,2.5771,2.5781,2.5788,2.5794,2.5805,2.5808,2.5818,2.5822,2.5826,2.5829,2.5834,2.5834,2.5835,2.5845,2.5831,2.5809,2.5807,2.5836,2.5836,2.5836,0,2.5704,2.5716,2.5719,2.5724,2.5742,2.5743,2.575,2.5762,2.5767,2.5775,2.5778,2.5786,2.579,2.5796,2.5808,2.5814,2.5811,2.5821,2.5816,2.5816,2.5815,2.5815,2.5793,2.5817,2.5817,2.5817,2.5817,0,2.5686,2.5687,2.5709,2.5711,2.5712,2.5728,2.5728,2.5737,2.5747,2.5751,2.5765,2.5768,2.5785,2.5789,2.5799,2.5801,2.5803,2.5808,2.5811,2.5807,2.5806,2.5809,2.581,2.5816,2.5816,2.5816,2.5817,0,2.5661,2.5676,2.568,2.5698,2.5702,2.5702,2.5717,2.5719,2.573,2.5734,2.5736,2.5752,2.5758,2.5771,2.5781,2.5788,2.5787,2.5792,2.5784,2.5785,2.578,2.578,2.5759,2.5757,2.5782,2.5781,2.5781,0,2.5649,2.565,2.5668,2.5672,2.568,2.5685,2.5691,2.5707,2.5711,2.5724,2.5725,2.5732,2.5739,2.5749,2.576,2.5768,2.5773,2.5765,2.5774,2.577,2.5773,2.5773,2.5773,2.5763,2.5763,2.5762,2.5762,0,2.5626,2.5634,2.5641,2.5651,2.5658,2.5666,2.5675,2.5677,2.5696,2.57,2.5707,2.5713,2.5723,2.573,2.574,2.5747,2.5757,2.5759,2.5758,2.5755,2.575,2.5753,2.5778,2.576,2.576,2.576,2.576,2.576,2.5607,2.5609,2.5623,2.5631,2.564,2.5648,2.5651,2.5663,2.5669,2.568,2.5689,2.5695,2.5706,2.572,2.5727,2.5732,2.5737,2.5736,2.5735,2.5735,2.5734,2.5749,2.5733,2.5734,2.5734,2.5734,2.5734,0,2.5586,2.5595,2.5603,2.5616,2.5622,2.5633,2.5643,2.5648,2.5654,2.5664,2.5671,2.5679,2.5687,2.5699,2.5708,2.5709,2.5714,2.5711,2.5711,2.5713,2.5728,2.5728,2.5707,2.5707,2.5707,2.5707,2.5707,2.5707,2.5575,2.5579,2.5589,2.5597,2.5607,2.5614,2.562,2.5627,2.5636,2.5645,2.5652,2.566,2.5672,2.5681,2.5688,2.5692,2.5694,2.5689,2.5694,2.5709,2.5711,2.5714,2.5714,2.569,2.569,2.5678,2.5678,2.5678]}]]